Location: Ravensburg
(47.7866°N, 9.6124°E)
Time: 05:43:25
(UTC+02:00)

AO-73 - Pass Details

Date: 21 March 2026
Orbit: 514 x 567 km, 97.8° (Epoch: 17 April)

Event Time Altitude Azimuth Distance (km) Brightness Sun altitude
Rises 04:23:29 0° 11° (N) 2,657 ? -20.3°
Reaches altitude 10° 04:25:36 10° 10° (N) 1,759 ? -20.0°
Maximum altitude 04:29:22 72° 286° (WNW) 546 ? -19.4°
Enters shadow 04:30:07 53° 221° (SW) 638 ? -19.3°
